FENGYUN 1C DEB, 33691

Orbit data source: Space-Track

FENGYUN 1C DEB, 33691 is space debris in SSO originally from a launch on Mon, 10 May 1999 UTC launched from the Taiyaun Space Center, China (TSC). Fengyun 1C debris stems from the Chinese weather satellite Fengyun-1C, which was intentionally destroyed by a Chinese anti-satellite missile in 2007. This event dramatically increased the amount of space debris, with thousands of trackable fragments posing hazards to satellites and human spaceflight. The Fengyun 1C debris cloud has become a focal point in discussions about space sustainability and the need for international regulations to prevent the creation of new debris.

Loading next visibility...
Identifier
33691, 1999-025DGC
Orbit
SSO
Country
Flag of CNCN / PRC
Related business
Manufacturer
Unknown
Mission
Spacecraft
Bus & Motor
Unknown
Mass
Unknown
Launch date (UTC)
1999-05-10 (27 years ago)
Launch vehicle
Unknown
Launch site
Taiyaun Space Center, China (TSC)
Object type
Payload
Rocket body
Debris
Shape & HBR
Unknown shape, 0.1 m
Radar Cross Section
Small (<0.1 m²)

Expand to show TLE details & history
Last TLE update: 3 months ago

TLE from 3 months ago
0 FENGYUN 1C DEB
1 33691U 99025DGC 26151.42255053  .00005761  00000-0  24291-2 0  9997
2 33691  99.1450 145.4370 0063365 301.7896  57.7120 14.24996578929044
Epoch: 2026-05-31T10:08Z
TLE epoch observation values (Epoch: 2026-05-31T10:08:28.365Z)
Latitude
-0.00004°
Longitude
104.39437°
Altitude
787.288 km
Speed
7.473 km/s
True Right ascension
09h 41m 44s
True Declination
0° 00' 00"
Sunlit
Object was in daylight at epoch
Visualization orbit readout
Latitude
Unknown
Longitude
Unknown
Altitude
Unknown
Speed
Unknown
Apparent Right ascension
Unknown
Apparent Declination
Unknown
Sunlit
N/A
Visualization observer readout
Local Sidereal Time
13:53:24
Azimuth
Unknown
Elevation
Unknown
Doppler factor
Unknown
Orbital elements
Apogee altitude
851.198 km
Perigee altitude
760.157 km
Semi-major axis
7,183.814 km
Eccentricity
0.00634
Inclination
99.145°
RAAN
145.437°
Arg. of periapsis
301.7896°
True anomaly
58.32843°
Mean anomaly
57.712°
Eccentric anomaly
58.01995°
Mean motion
3.5646 °/min
Orbital period
100.99 mins
BSTAR
0.0024291
Loading maneuver chart data...
Computing Atmospheric mass density...
Loading historical data...
Loading historical data...
Loading historical data...
Loading historical data...
Loading historical data...
Loading historical data...
Loading historical data...

Documentation

Showing up to 5 results
|